Powrót do katalogu

STARLINK-4051

AktywnyŁącznośćVLEO
NORAD 53273·PAYLOAD·🇺🇸 United States

Wystrzelony Jul 24, 2022 z Cape Canaveral Space Force Station

Loading…

Następne Przeloty (najbliższe 24 godziny)

TLE

ŚwieżeSource: CelesTrak SupGP

Epoka: Sep 14, 2026, 22:19 UTC

1 53273C 22086AH  26257.93034722  .00011775  00000+0  34804-3 0  2579
2 53273  53.1599  40.1124 0001236  83.4333 114.1154 15.34373299    16

Śledź STARLINK-4051 w czasie rzeczywistym z AllMySat

Download on the App Store